EW3712 Weather Reports


time (UTC)temp
F
wind
direction
speed
knots
gust
knots
rain 1hr
in
rain 24hr
in
rain mn
in
humidity
%
barometer
mb
20260505152604 46 0 0.0 0.0 0.00 0.12 0.12 88 1008.7
20260505152404 46 0 0.0 0.0 0.00 0.12 0.12 88 1008.6
20260505152305 46 0 0.0 0.0 0.00 0.12 0.12 88 1008.6
20260505152204 46 0 0.0 0.0 0.00 0.12 0.12 88 1008.6
20260505152103 46 0 0.0 0.0 0.00 0.12 0.12 88 1008.6
20260505152003 46 0 0.0 0.0 0.00 0.12 0.12 88 1008.6
20260505151904 46 0 0.0 0.0 0.00 0.12 0.12 88 1008.6
20260505151803 46 0 0.0 0.0 0.00 0.12 0.12 88 1008.7
20260505151703 46 0 0.0 0.0 0.00 0.12 0.12 88 1008.7
20260505151603 46 0 0.0 0.0 0.00 0.12 0.12 88 1008.7
20260505151503 46 0 0.0 0.0 0.00 0.12 0.12 88 1008.7
20260505151403 46 0 0.0 0.0 0.00 0.12 0.12 88 1008.6
20260505151303 46 0 0.0 0.0 0.00 0.12 0.12 88 1008.6
20260505151203 46 0 0.0 0.0 0.00 0.12 0.12 88 1008.6
20260505151004 46 0 0.0 0.0 0.00 0.12 0.12 88 1008.6
20260505150903 46 0 0.0 0.0 0.00 0.12 0.12 88 1008.6
20260505150803 46 0 0.0 0.0 0.00 0.12 0.12 88 1008.6
20260505150704 46 0 0.0 0.0 0.00 0.12 0.12 88 1008.5
20260505150603 46 0 0.0 0.0 0.00 0.12 0.12 87 1008.5
20260505150503 46 0 0.0 0.0 0.00 0.12 0.12 88 1008.6
20260505150404 46 0 0.0 0.0 0.00 0.12 0.12 87 1008.5
20260505150304 46 0 0.0 0.0 0.00 0.12 0.12 87 1008.5
20260505150203 46 0 0.0 0.0 0.00 0.12 0.12 87 1008.5
20260505150104 46 0 0.0 0.0 0.00 0.12 0.12 87 1008.5
20260505140504 46 39 3.5 7.8 0.05 0.12 0.12 85 1009.0
20260505124503 48 0 0.0 8.7 0.04 0.06 0.06 79 1008.6
20260505124203 48 0 0.0 0.0 0.04 0.06 0.06 78 1008.7
20260505123103 49 0 0.0 0.0 0.02 0.04 0.04 73 1008.8
20260505122704 49 0 0.0 0.0 0.02 0.04 0.04 72 1008.9
20260505122503 50 0 0.9 0.0 0.02 0.04 0.04 71 1008.7
20260505122004 50 114 2.6 5.2 0.01 0.03 0.03 67 1008.6
20260505121903 50 123 3.5 5.2 0.01 0.03 0.03 67 1008.6
20260505121503 50 168 4.3 10.4 0.01 0.03 0.03 64 1008.5
20260505121203 51 169 5.2 10.4 0.01 0.03 0.03 62 1008.4
20260505121103 51 170 5.2 10.4 0.01 0.03 0.03 61 1008.3
20260505120703 51 179 5.2 10.4 0.00 0.02 0.02 62 1008.3
20260505120603 51 181 6.1 16.5 0.00 0.02 0.02 62 1008.2
20260505120503 51 185 6.1 16.5 0.00 0.02 0.02 62 1008.3
20260505120004 51 192 5.2 16.5 0.00 0.02 0.02 60 1008.2
20260505115803 50 190 5.2 16.5 0.01 0.02 0.02 63 1008.1
20260505115503 50 182 5.2 12.2 0.01 0.02 0.02 68 1008.0
20260505115203 50 178 6.1 12.2 0.02 0.02 0.02 69 1008.2
20260505115003 49 181 7.0 12.2 0.02 0.02 0.02 70 1008.2
20260505114803 49 181 7.0 12.2 0.02 0.02 0.02 70 1008.2
20260505114503 50 182 7.8 13.9 0.02 0.02 0.02 71 1008.2
20260505114203 50 181 7.8 13.9 0.02 0.02 0.02 71 1008.3
20260505114003 50 179 7.8 13.9 0.02 0.02 0.02 71 1008.1
20260505113704 49 183 7.8 13.9 0.02 0.02 0.02 71 1008.2
20260505113604 49 182 7.0 13.9 0.02 0.02 0.02 72 1008.2
20260505113104 49 186 6.1 13.0 0.02 0.02 0.02 73 1008.3
20260505112704 50 192 5.2 13.0 0.02 0.02 0.02 72 1008.2
20260505112503 49 197 5.2 8.7 0.02 0.02 0.02 71 1008.2
20260505112004 49 209 5.2 8.7 0.02 0.02 0.02 73 1008.2
20260505111903 49 209 5.2 8.7 0.02 0.02 0.02 74 1008.2
20260505111803 49 210 5.2 8.7 0.02 0.02 0.02 74 1008.2
20260505111504 49 214 4.3 8.7 0.02 0.02 0.02 76 1008.2
20260505111304 49 217 3.5 8.7 0.02 0.02 0.02 76 1008.2
20260505111203 49 217 3.5 7.8 0.02 0.02 0.02 76 1008.2
20260505111004 49 220 2.6 7.8 0.02 0.02 0.02 76 1008.2
20260505110804 49 221 2.6 7.8 0.02 0.02 0.02 75 1008.2
20260505110703 49 223 2.6 7.8 0.02 0.02 0.02 75 1008.2
20260505110603 49 225 1.7 7.8 0.02 0.02 0.02 75 1008.2
20260505110403 49 214 1.7 7.8 0.02 0.02 0.02 74 1008.3
20260505110104 50 177 0.9 8.7 0.02 0.02 0.02 73 1008.3
20260505102204 49 0 0.0 0.0 0.00 0.00 0.00 77 1008.4
20260505101804 49 0 0.0 0.0 0.00 0.00 0.00 75 1008.4
20260505101404 49 0 0.9 0.0 0.00 0.00 0.00 75 1008.4
20260505101003 49 253 1.7 4.3 0.00 0.00 0.00 74 1008.4
20260505100903 50 257 2.6 4.3 0.00 0.00 0.00 74 1008.4
20260505100803 50 256 2.6 5.2 0.00 0.00 0.00 74 1008.4
20260505100603 50 258 2.6 5.2 0.00 0.00 0.00 73 1008.4
20260505100503 50 258 2.6 5.2 0.00 0.00 0.00 72 1008.5
20260505100203 50 260 2.6 5.2 0.00 0.00 0.00 72 1008.4
20260505095004 51 275 2.6 3.5 0.00 0.00 0.00 63 1008.5
20260505094703 50 275 2.6 5.2 0.00 0.00 0.00 62 1008.5
20260505094403 50 275 2.6 5.2 0.00 0.00 0.00 62 1008.6
20260505094303 50 275 1.7 5.2 0.00 0.00 0.00 62 1008.5
20260505094003 50 275 1.7 5.2 0.00 0.00 0.00 63 1008.5
20260505093603 50 275 1.7 3.5 0.00 0.00 0.00 64 1008.5
20260505093504 50 274 1.7 3.5 0.00 0.00 0.00 63 1008.4
20260505093403 50 273 1.7 3.5 0.00 0.00 0.00 63 1008.4
20260505093103 50 272 1.7 3.5 0.00 0.00 0.00 63 1008.5
20260505093003 50 270 2.6 3.5 0.00 0.00 0.00 63 1008.6
20260505092403 50 261 2.6 4.3 0.00 0.00 0.00 63 1008.5
20260505092003 50 264 1.7 4.3 0.00 0.00 0.00 64 1008.5
20260505091904 50 266 0.9 4.3 0.00 0.00 0.00 64 1008.5
20260505091504 49 273 0.0 4.3 0.00 0.00 0.00 65 1008.6
20260505091203 49 280 0.0 2.6 0.00 0.00 0.00 64 1008.6
20260505091104 49 281 0.0 1.7 0.00 0.00 0.00 64 1008.6
20260505090804 49 0 0.0 0.9 0.00 0.00 0.00 65 1008.6
20260505090003 50 0 0.0 0.9 0.00 0.00 0.00 64 1008.8
20260505085904 50 0 0.0 0.9 0.00 0.00 0.00 64 1008.8
20260505085504 50 0 0.0 0.9 0.00 0.00 0.00 63 1008.8
20260505085203 50 0 0.0 0.9 0.00 0.00 0.00 64 1008.8
20260505085003 50 238 0.0 0.9 0.00 0.00 0.00 64 1008.8
20260505084803 50 0 0.0 0.0 0.00 0.00 0.00 64 1008.8
20260505084304 50 257 0.9 0.9 0.00 0.00 0.00 65 1008.8
20260505084104 50 261 1.7 1.7 0.00 0.00 0.00 64 1008.9
20260505084003 50 264 1.7 3.5 0.00 0.00 0.00 64 1008.8
20260505083704 50 265 2.6 3.5 0.00 0.00 0.00 63 1008.9
20260505083503 50 266 2.6 4.3 0.00 0.00 0.00 62 1009.0
20260505083303 50 262 2.6 4.3 0.00 0.00 0.00 62 1009.0
20260505083004 50 263 2.6 4.3 0.00 0.00 0.00 62 1009.0
20260505082603 50 266 3.5 5.2 0.00 0.00 0.00 62 1008.9
20260505081803 49 275 1.7 5.2 0.00 0.00 0.00 64 1009.0
20260505081603 49 276 0.9 5.2 0.00 0.00 0.00 64 1009.0
20260505081503 49 277 0.9 5.2 0.00 0.00 0.00 65 1008.9
20260505081103 49 276 0.0 4.3 0.00 0.00 0.00 66 1008.9
20260505081004 49 271 0.0 3.5 0.00 0.00 0.00 67 1008.9
20260505080903 49 269 0.9 1.7 0.00 0.00 0.00 68 1008.9
20260505080503 49 238 0.9 1.7 0.00 0.00 0.00 67 1009.0
20260505080204 50 239 0.9 1.7 0.00 0.00 0.00 67 1009.0
20260505080103 50 239 0.9 1.7 0.00 0.00 0.00 66 1009.0
20260505080004 50 239 0.9 1.7 0.00 0.00 0.00 66 1009.0
20260505075903 50 232 0.9 1.7 0.00 0.00 0.00 66 1009.0
20260505075804 50 218 1.7 1.7 0.00 0.00 0.00 65 1009.0
20260505075703 50 184 1.7 1.7 0.00 0.00 0.00 65 1009.0
20260505075603 50 141 1.7 1.7 0.00 0.00 0.00 64 1009.1
20260505075503 51 133 1.7 1.7 0.00 0.00 0.00 63 1009.0
20260505075403 51 126 1.7 3.5 0.00 0.00 0.00 63 1009.0
20260505075304 51 123 2.6 3.5 0.00 0.00 0.00 62 1009.0
20260505075104 51 122 2.6 3.5 0.00 0.00 0.00 61 1009.0
20260505075003 51 123 2.6 3.5 0.00 0.00 0.00 61 1009.0
20260505074903 51 122 2.6 3.5 0.00 0.00 0.00 61 1009.0
20260505074804 51 121 2.6 3.5 0.00 0.00 0.00 61 1009.0
20260505074703 51 121 2.6 3.5 0.00 0.00 0.00 61 1009.0
20260505074404 51 118 2.6 4.3 0.00 0.00 0.00 61 1009.1
20260505074303 51 116 1.7 4.3 0.00 0.00 0.00 61 1009.1
20260505074204 51 115 1.7 4.3 0.00 0.00 0.00 61 1009.1
20260505074103 51 113 1.7 4.3 0.00 0.00 0.00 61 1009.1
20260505074003 51 113 1.7 4.3 0.00 0.00 0.00 61 1009.1
20260505073904 51 112 1.7 4.3 0.00 0.00 0.00 61 1009.1
20260505073803 51 112 1.7 4.3 0.00 0.00 0.00 61 1009.2
20260505073703 51 111 1.7 4.3 0.00 0.00 0.00 61 1009.2
20260505073604 51 112 1.7 4.3 0.00 0.00 0.00 61 1009.2
20260505073503 51 113 1.7 4.3 0.00 0.00 0.00 61 1009.2
20260505073404 51 117 2.6 3.5 0.00 0.00 0.00 61 1009.2
20260505073303 51 127 2.6 3.5 0.00 0.00 0.00 61 1009.2
20260505073203 51 139 3.5 4.3 0.00 0.00 0.00 61 1009.2
20260505073104 51 147 3.5 4.3 0.00 0.00 0.00 61 1009.2
20260505073003 52 150 3.5 4.3 0.00 0.00 0.00 61 1009.2
20260505072904 52 147 4.3 4.3 0.00 0.00 0.00 61 1009.2
20260505072804 52 144 4.3 5.2 0.00 0.00 0.00 60 1009.2
20260505072703 52 141 4.3 6.1 0.00 0.00 0.00 60 1009.2
20260505072604 52 138 5.2 6.1 0.00 0.00 0.00 60 1009.3
20260505072503 52 135 5.2 6.1 0.00 0.00 0.00 59 1009.3
20260505072403 52 133 5.2 6.1 0.00 0.00 0.00 58 1009.4
20260505072305 52 132 5.2 6.1 0.00 0.00 0.00 58 1009.4
20260505072204 52 130 5.2 7.0 0.00 0.00 0.00 58 1009.4
20260505072003 52 128 4.3 7.0 0.00 0.00 0.00 58 1009.4
20260505071903 52 127 4.3 7.0 0.00 0.00 0.00 58 1009.5
20260505071803 52 127 4.3 7.0 0.00 0.00 0.00 58 1009.5
20260505071703 52 127 4.3 7.0 0.00 0.00 0.00 58 1009.5
20260505071504 52 130 3.5 7.0 0.00 0.00 0.00 58 1009.5
20260505071304 52 133 2.6 7.0 0.00 0.00 0.00 58 1009.4
20260505071103 52 136 2.6 6.1 0.00 0.00 0.00 58 1009.5
20260505071004 52 139 2.6 6.1 0.00 0.00 0.00 58 1009.4
20260505070903 52 143 1.7 6.1 0.00 0.00 0.00 58 1009.5
20260505070804 52 146 1.7 4.3 0.00 0.00 0.00 58 1009.5
20260505070703 52 149 1.7 4.3 0.00 0.00 0.00 58 1009.5
20260505070603 52 152 1.7 4.3 0.00 0.00 0.00 59 1009.4
20260505070503 52 154 1.7 4.3 0.00 0.00 0.00 58 1009.5
20260505070404 52 157 1.7 4.3 0.00 0.00 0.00 58 1009.4
20260505070304 52 159 1.7 4.3 0.00 0.00 0.00 58 1009.4
20260505070203 52 160 1.7 4.3 0.00 0.00 0.00 58 1009.4
20260505070104 52 169 1.7 4.3 0.00 0.00 0.00 58 1009.4
20260505070004 52 189 2.6 4.3 0.00 0.00 0.00 58 1009.4
20260505065903 52 298 2.6 4.3 0.00 0.00 0.00 58 1009.5
20260505065804 52 313 2.6 5.2 0.00 0.00 0.00 57 1009.4
20260505065703 52 316 2.6 5.2 0.00 0.00 0.00 57 1009.4
20260505065604 52 319 2.6 5.2 0.00 0.00 0.00 57 1009.5
20260505065503 52 319 2.6 5.2 0.00 0.00 0.00 56 1009.5
20260505065404 52 319 2.6 5.2 0.00 0.00 0.00 56 1009.5
20260505065304 52 319 2.6 5.2 0.00 0.00 0.00 56 1009.5
20260505065204 52 318 1.7 5.2 0.00 0.00 0.00 56 1009.4
20260505065103 52 318 1.7 5.2 0.00 0.00 0.00 57 1009.4
20260505064904 52 317 0.9 5.2 0.00 0.00 0.00 57 1009.4
20260505064803 52 318 0.9 5.2 0.00 0.00 0.00 57 1009.5
20260505064703 52 317 0.9 5.2 0.00 0.00 0.00 57 1009.5
20260505064604 52 316 0.0 5.2 0.00 0.00 0.00 58 1009.5
20260505064403 52 314 0.0 5.2 0.00 0.00 0.00 58 1009.5
20260505064303 52 313 0.0 5.2 0.00 0.00 0.00 58 1009.5
20260505064203 52 313 0.0 4.3 0.00 0.00 0.00 58 1009.4
20260505064003 52 315 0.9 3.5 0.00 0.00 0.00 58 1009.5
20260505063903 52 318 0.9 3.5 0.00 0.00 0.00 58 1009.5
20260505063804 52 308 0.9 0.9 0.00 0.00 0.00 58 1009.5
20260505063704 52 300 0.9 0.9 0.00 0.00 0.00 58 1009.4
20260505063603 52 314 1.7 3.5 0.00 0.00 0.00 58 1009.4
20260505063504 52 318 1.7 3.5 0.00 0.00 0.00 58 1009.5
20260505063403 52 316 1.7 4.3 0.00 0.00 0.00 58 1009.4
20260505063303 52 318 1.7 4.3 0.00 0.00 0.00 58 1009.4
20260505063204 53 320 2.6 4.3 0.00 0.00 0.00 58 1009.4
20260505063103 53 328 2.6 6.1 0.00 0.00 0.00 58 1009.4
20260505063004 53 332 2.6 6.1 0.00 0.00 0.00 58 1009.4
20260505062904 53 337 2.6 6.1 0.00 0.00 0.00 58 1009.4
20260505062803 53 339 2.6 7.8 0.00 0.00 0.00 58 1009.4
20260505062704 53 336 2.6 7.8 0.00 0.00 0.00 58 1009.3
20260505062603 53 335 2.6 7.8 0.00 0.00 0.00 57 1009.4
20260505062504 53 335 1.7 7.8 0.00 0.00 0.00 58 1009.4
20260505062403 53 335 1.7 7.8 0.00 0.00 0.00 57 1009.4
20260505062304 53 335 1.7 7.8 0.00 0.00 0.00 57 1009.4
20260505062204 53 334 1.7 7.8 0.00 0.00 0.00 57 1009.4
20260505062103 53 327 1.7 7.8 0.00 0.00 0.00 57 1009.3
20260505062003 53 324 1.7 7.8 0.00 0.00 0.00 57 1009.3
20260505061903 53 315 1.7 7.8 0.00 0.00 0.00 58 1009.3
20260505061803 53 300 1.7 7.0 0.00 0.00 0.00 58 1009.3
20260505061704 52 294 2.6 5.2 0.00 0.00 0.00 58 1009.3
20260505061603 52 295 2.6 5.2 0.00 0.00 0.00 58 1009.3
20260505061503 52 297 2.6 5.2 0.00 0.00 0.00 58 1009.3
20260505061404 53 298 2.6 5.2 0.00 0.00 0.00 58 1009.3
20260505061303 53 300 2.6 6.1 0.00 0.00 0.00 58 1009.3
20260505061204 53 301 2.6 6.1 0.00 0.00 0.00 58 1009.3
20260505061104 53 304 2.6 6.1 0.00 0.00 0.00 58 1009.3
20260505061003 53 303 2.6 6.1 0.00 0.00 0.00 58 1009.3
20260505060904 53 304 1.7 6.1 0.00 0.00 0.00 58 1009.3
20260505060804 53 305 1.7 6.1 0.00 0.00 0.00 58 1009.3
20260505060703 53 305 1.7 6.1 0.00 0.00 0.00 58 1009.3
20260505060603 53 305 1.7 6.1 0.00 0.00 0.00 58 1009.3
20260505060504 53 305 1.7 6.1 0.00 0.00 0.00 58 1009.3
20260505060404 52 306 1.7 6.1 0.00 0.00 0.00 58 1009.3
20260505060304 52 306 1.7 5.2 0.00 0.00 0.00 58 1009.3
20260505060204 52 308 1.7 5.2 0.00 0.00 0.00 58 1009.3
20260505060104 52 307 1.7 5.2 0.00 0.00 0.00 59 1009.3
20260505060005 52 308 1.7 5.2 0.00 0.00 0.00 58 1009.3
20260505055903 52 307 1.7 5.2 0.00 0.00 0.00 58 1009.3
20260505055803 52 300 1.7 5.2 0.00 0.00 0.00 58 1009.3
20260505055704 52 299 0.9 5.2 0.00 0.00 0.00 58 1009.3
20260505055603 52 294 0.9 5.2 0.00 0.00 0.00 59 1009.3
20260505055504 52 291 0.9 5.2 0.00 0.00 0.00 59 1009.3
20260505055403 52 287 0.9 5.2 0.00 0.00 0.00 59 1009.3
20260505055304 52 285 0.9 5.2 0.00 0.00 0.00 59 1009.3
20260505055203 52 274 0.9 4.3 0.00 0.00 0.00 60 1009.3
20260505055103 52 272 0.0 4.3 0.00 0.00 0.00 60 1009.3
20260505055004 52 265 0.0 4.3 0.00 0.00 0.00 60 1009.3
20260505054804 52 269 0.0 4.3 0.00 0.00 0.00 60 1009.3
20260505054703 52 269 0.0 4.3 0.00 0.00 0.00 61 1009.3
20260505054604 52 0 0.0 3.5 0.00 0.00 0.00 61 1009.3
20260505054503 51 0 0.0 1.7 0.00 0.00 0.00 61 1009.3
20260505054403 51 0 0.0 1.7 0.00 0.00 0.00 61 1009.3
20260505054304 51 0 0.0 1.7 0.00 0.00 0.00 61 1009.3
20260505054203 51 302 0.0 1.7 0.00 0.00 0.00 61 1009.4
20260505054104 51 157 0.0 0.9 0.00 0.00 0.00 61 1009.4
20260505053903 51 0 0.9 0.0 0.00 0.00 0.00 61 1009.3
20260505053804 51 0 0.9 0.0 0.00 0.00 0.00 61 1009.4
20260505053703 51 0 0.9 0.0 0.00 0.00 0.00 60 1009.4
20260505053604 52 0 1.7 0.0 0.00 0.00 0.00 60 1009.4
20260505053503 52 20 1.7 0.9 0.00 0.00 0.00 60 1009.4
20260505053405 52 25 1.7 1.7 0.00 0.00 0.00 60 1009.4
20260505053303 52 39 2.6 4.3 0.00 0.00 0.00 60 1009.4
20260505053203 52 42 2.6 4.3 0.00 0.00 0.00 60 1009.4
20260505053104 52 40 3.5 4.3 0.00 0.00 0.00 60 1009.4
20260505053003 52 40 3.5 6.1 0.00 0.00 0.00 60 1009.4
20260505052904 52 39 3.5 6.1 0.00 0.00 0.00 60 1009.4
20260505052803 52 38 3.5 7.0 0.00 0.00 0.00 60 1009.4
20260505052704 52 40 3.5 7.0 0.00 0.00 0.00 60 1009.5
20260505052603 52 41 3.5 7.0 0.00 0.00 0.00 60 1009.4
20260505052503 52 43 3.5 7.0 0.00 0.00 0.00 60 1009.4
20260505052404 52 46 3.5 7.0 0.00 0.00 0.00 61 1009.4
20260505052304 52 48 2.6 7.0 0.00 0.00 0.00 61 1009.4
20260505052203 52 49 2.6 7.0 0.00 0.00 0.00 61 1009.4
20260505052104 52 50 1.7 7.0 0.00 0.00 0.00 61 1009.4
20260505052003 52 51 1.7 7.0 0.00 0.00 0.00 61 1009.4
20260505051904 52 53 1.7 7.0 0.00 0.00 0.00 60 1009.3
20260505051804 52 56 1.7 6.1 0.00 0.00 0.00 61 1009.3
20260505051703 52 57 1.7 6.1 0.00 0.00 0.00 60 1009.3
20260505051604 52 58 1.7 5.2 0.00 0.00 0.00 59 1009.3
20260505051503 52 58 2.6 5.2 0.00 0.00 0.00 59 1009.3
20260505051404 52 55 2.6 5.2 0.00 0.00 0.00 59 1009.2
20260505051303 53 21 3.5 5.2 0.00 0.00 0.00 59 1009.2
20260505051104 53 261 4.3 5.2 0.00 0.00 0.00 58 1009.1
20260505051003 53 255 5.2 7.8 0.00 0.00 0.00 58 1009.2
20260505050904 53 253 5.2 7.8 0.00 0.00 0.00 58 1009.1
20260505050803 53 253 6.1 7.8 0.00 0.00 0.00 58 1009.1
20260505050704 53 255 7.0 8.7 0.00 0.00 0.00 58 1009.2
20260505050603 53 255 7.0 11.3 0.00 0.00 0.00 58 1009.1
20260505050404 53 257 7.8 11.3 0.00 0.00 0.00 58 1009.1
20260505050303 53 257 7.8 11.3 0.00 0.00 0.00 58 1009.0
20260505050204 53 257 7.8 11.3 0.00 0.00 0.00 58 1009.0
20260505050104 53 258 7.8 11.3 0.00 0.00 0.00 58 1009.0
20260505041703 54 254 13.0 20.0 0.00 0.00 0.00 55 1008.8
20260505041604 54 253 12.2 20.0 0.00 0.00 0.00 55 1008.8
20260505041503 54 253 12.2 20.0 0.00 0.00 0.00 55 1008.7
20260505041404 54 254 12.2 20.0 0.00 0.00 0.00 55 1008.7
20260505041304 54 254 12.2 20.0 0.00 0.00 0.00 55 1008.6
20260505041203 54 254 12.2 20.0 0.00 0.00 0.00 55 1008.7
20260505041104 54 253 12.2 19.1 0.00 0.00 0.00 55 1008.6
20260505041004 54 253 12.2 19.1 0.00 0.00 0.00 55 1008.6
20260505040903 54 252 12.2 19.1 0.00 0.00 0.00 55 1008.6
20260505040804 54 252 12.2 19.1 0.00 0.00 0.00 55 1008.6
20260505040703 54 252 12.2 19.1 0.00 0.00 0.00 55 1008.5
20260505040604 54 252 12.2 16.5 0.00 0.00 0.00 55 1008.5
20260505040503 54 252 12.2 16.5 0.00 0.00 0.00 55 1008.8
20260505040404 54 252 12.2 16.5 0.00 0.00 0.00 55 1008.9
20260505040204 54 251 12.2 16.5 0.00 0.00 0.00 55 1008.9
20260505040104 55 251 12.2 16.5 0.00 0.00 0.00 55 1008.9
20260505040005 55 251 12.2 16.5 0.00 0.00 0.00 54 1008.9
20260505035904 54 251 11.3 16.5 0.00 0.00 0.00 54 1008.8
20260505035804 54 250 11.3 16.5 0.00 0.00 0.00 54 1008.8
20260505035704 54 250 11.3 16.5 0.00 0.00 0.00 54 1008.9
20260505035603 55 250 11.3 16.5 0.00 0.00 0.00 54 1008.9
20260505035504 55 251 11.3 16.5 0.00 0.00 0.00 54 1008.9
20260505035403 55 251 11.3 16.5 0.00 0.00 0.00 54 1008.8
20260505035304 55 251 11.3 16.5 0.00 0.00 0.00 54 1008.8
20260505035204 55 250 11.3 16.5 0.00 0.00 0.00 54 1008.8
20260505035103 55 249 11.3 16.5 0.00 0.00 0.00 54 1008.9
20260505035004 55 248 11.3 16.5 0.00 0.00 0.00 54 1008.8
20260505034903 55 247 11.3 16.5 0.00 0.00 0.00 54 1008.8
20260505034803 55 246 11.3 16.5 0.00 0.00 0.00 54 1008.8
20260505034604 55 245 11.3 16.5 0.00 0.00 0.00 53 1008.8
20260505034503 55 243 11.3 15.6 0.00 0.00 0.00 53 1008.7
20260505034404 55 242 11.3 15.6 0.00 0.00 0.00 53 1008.7
20260505034203 55 241 12.2 15.6 0.00 0.00 0.00 53 1008.7
20260505034104 55 242 12.2 13.9 0.00 0.00 0.00 53 1008.7
20260505034005 55 240 12.2 15.6 0.00 0.00 0.00 53 1008.7
20260505033903 55 241 12.2 18.2 0.00 0.00 0.00 53 1008.7
20260505033804 55 241 12.2 18.2 0.00 0.00 0.00 53 1008.7
20260505033703 55 241 12.2 18.2 0.00 0.00 0.00 52 1008.7
20260505033603 56 242 12.2 18.2 0.00 0.00 0.00 52 1008.7
20260505033504 56 242 11.3 18.2 0.00 0.00 0.00 52 1008.7
20260505033104 56 239 10.4 18.2 0.00 0.00 0.00 51 1008.6
20260505032904 56 239 10.4 18.2 0.00 0.00 0.00 51 1008.6
20260505032803 56 239 9.6 18.2 0.00 0.00 0.00 51 1008.6
20260505032703 56 239 9.6 18.2 0.00 0.00 0.00 51 1008.5
20260505032604 56 239 9.6 15.6 0.00 0.00 0.00 50 1008.7
20260505032504 56 239 8.7 15.6 0.00 0.00 0.00 50 1008.6
20260505032404 56 241 8.7 13.9 0.00 0.00 0.00 49 1008.6
20260505032304 56 242 8.7 13.9 0.00 0.00 0.00 49 1008.6
20260505032204 56 243 7.8 13.9 0.00 0.00 0.00 49 1008.7
20260505032104 56 244 7.8 13.9 0.00 0.00 0.00 48 1008.5
20260505032004 56 243 7.8 13.9 0.00 0.00 0.00 48 1008.5
20260505031904 57 244 7.8 13.0 0.00 0.00 0.00 47 1008.4
20260505031803 57 242 7.8 13.0 0.00 0.00 0.00 47 1008.4
20260505031704 57 241 7.0 13.0 0.00 0.00 0.00 47 1008.4
20260505031603 57 240 7.0 13.0 0.00 0.00 0.00 46 1008.4
20260505031504 57 238 7.0 13.0 0.00 0.00 0.00 46 1008.4
20260505031403 57 236 7.0 13.0 0.00 0.00 0.00 46 1008.4
20260505031303 57 233 7.0 13.0 0.00 0.00 0.00 46 1008.3
20260505031204 57 232 7.0 11.3 0.00 0.00 0.00 46 1008.3
20260505031103 57 230 7.0 10.4 0.00 0.00 0.00 46 1008.3
20260505031003 57 230 7.0 10.4 0.00 0.00 0.00 45 1008.3
20260505030904 57 229 7.0 10.4 0.00 0.00 0.00 45 1008.2
20260505030804 57 230 7.0 10.4 0.00 0.00 0.00 45 1008.2
20260505030703 57 230 7.8 10.4 0.00 0.00 0.00 45 1008.2
20260505030604 57 231 7.8 10.4 0.00 0.00 0.00 45 1008.2
20260505030503 57 232 7.8 10.4 0.00 0.00 0.00 45 1008.1
20260505030403 57 232 7.8 10.4 0.00 0.00 0.00 45 1008.1
20260505030304 57 232 7.8 10.4 0.00 0.00 0.00 45 1008.1
20260505030203 57 231 7.8 10.4 0.00 0.00 0.00 45 1008.1
20260505030104 57 231 7.8 10.4 0.00 0.00 0.00 45 1008.0
20260505030004 57 229 8.7 10.4 0.00 0.00 0.00 45 1008.0
20260505025903 57 228 8.7 10.4 0.00 0.00 0.00 45 1008.0
20260505025804 57 227 8.7 10.4 0.00 0.00 0.00 45 1008.0
20260505025703 57 225 8.7 10.4 0.00 0.00 0.00 45 1008.0
20260505025603 58 224 9.6 10.4 0.00 0.00 0.00 45 1008.0
20260505025504 58 223 9.6 13.9 0.00 0.00 0.00 45 1008.0
20260505025404 58 223 9.6 13.9 0.00 0.00 0.00 45 1008.0
20260505025304 58 223 9.6 13.9 0.00 0.00 0.00 45 1008.0
20260505025204 58 222 9.6 13.9 0.00 0.00 0.00 45 1008.0
20260505025104 58 222 10.4 13.9 0.00 0.00 0.00 45 1007.9
20260505025003 58 223 10.4 13.9 0.00 0.00 0.00 45 1007.9
20260505024904 58 223 10.4 13.9 0.00 0.00 0.00 45 1008.0
20260505024803 58 223 10.4 13.9 0.00 0.00 0.00 45 1008.0
20260505024703 58 223 10.4 13.9 0.00 0.00 0.00 45 1008.0
20260505024604 58 223 10.4 15.6 0.00 0.00 0.00 45 1008.0
20260505024503 58 224 9.6 15.6 0.00 0.00 0.00 45 1008.0
20260505024404 58 223 9.6 15.6 0.00 0.00 0.00 45 1008.0
20260505024304 58 222 9.6 15.6 0.00 0.00 0.00 44 1007.9
20260505024203 58 222 9.6 15.6 0.00 0.00 0.00 44 1007.9
20260505024104 58 221 9.6 15.6 0.00 0.00 0.00 44 1007.8
20260505024003 58 221 8.7 15.6 0.00 0.00 0.00 44 1007.7
20260505023903 58 221 8.7 15.6 0.00 0.00 0.00 44 1007.8
20260505023804 58 220 8.7 15.6 0.00 0.00 0.00 44 1007.7
20260505023704 58 221 8.7 15.6 0.00 0.00 0.00 44 1007.7
20260505023603 58 220 8.7 15.6 0.00 0.00 0.00 44 1007.7
20260505023504 58 220 8.7 15.6 0.00 0.00 0.00 43 1007.7
20260505023303 58 223 8.7 13.0 0.00 0.00 0.00 43 1007.7
20260505023204 59 224 8.7 13.0 0.00 0.00 0.00 43 1007.7
20260505023103 59 226 7.8 13.0 0.00 0.00 0.00 42 1007.7
20260505023004 59 226 7.8 13.0 0.00 0.00 0.00 42 1007.6
20260505022803 59 226 7.8 12.2 0.00 0.00 0.00 42 1007.7
20260505022703 59 227 7.8 12.2 0.00 0.00 0.00 41 1007.7
20260505022604 59 228 7.8 12.2 0.00 0.00 0.00 41 1007.6
20260505022503 59 228 7.8 12.2 0.00 0.00 0.00 41 1007.7
20260505022404 59 229 7.8 12.2 0.00 0.00 0.00 41 1007.7
20260505022304 59 230 7.8 12.2 0.00 0.00 0.00 41 1007.7
20260505022203 59 231 7.8 10.4 0.00 0.00 0.00 41 1007.5
20260505022104 59 232 7.8 10.4 0.00 0.00 0.00 41 1007.6
20260505022003 59 233 8.7 10.4 0.00 0.00 0.00 41 1007.5
20260505021903 59 234 8.7 10.4 0.00 0.00 0.00 40 1007.6
20260505021804 59 234 8.7 10.4 0.00 0.00 0.00 41 1007.6
20260505021703 59 234 8.7 10.4 0.00 0.00 0.00 41 1007.6
20260505021604 59 233 8.7 10.4 0.00 0.00 0.00 40 1007.5
20260505021504 59 231 8.7 13.0 0.00 0.00 0.00 40 1007.5
20260505021403 59 232 8.7 13.0 0.00 0.00 0.00 40 1007.4
20260505021304 59 231 8.7 13.0 0.00 0.00 0.00 40 1007.4
20260505021203 59 231 8.7 13.0 0.00 0.00 0.00 40 1007.4
20260505021103 59 231 8.7 13.0 0.00 0.00 0.00 40 1007.4
20260505021004 59 231 9.6 13.0 0.00 0.00 0.00 41 1007.4
20260505020903 59 231 9.6 13.9 0.00 0.00 0.00 41 1007.4
20260505020803 59 232 9.6 13.9 0.00 0.00 0.00 41 1007.3
20260505020704 59 233 9.6 13.9 0.00 0.00 0.00 41 1007.3
20260505020503 59 234 9.6 13.9 0.00 0.00 0.00 41 1007.3
20260505020404 59 233 8.7 13.9 0.00 0.00 0.00 41 1007.2
20260505020303 59 234 8.7 15.6 0.00 0.00 0.00 41 1007.2
20260505020203 59 234 8.7 15.6 0.00 0.00 0.00 41 1007.1
20260505020104 59 234 8.7 15.6 0.00 0.00 0.00 41 1007.0
20260505020003 59 234 8.7 15.6 0.00 0.00 0.00 41 1007.0
20260505015903 59 234 8.7 15.6 0.00 0.00 0.00 41 1007.4
20260505015804 59 234 8.7 15.6 0.00 0.00 0.00 41 1007.5
20260505015703 59 234 8.7 15.6 0.00 0.00 0.00 41 1007.4
20260505015603 59 236 8.7 15.6 0.00 0.00 0.00 41 1007.5
20260505015504 59 237 8.7 15.6 0.00 0.00 0.00 41 1007.4
20260505015403 59 238 8.7 15.6 0.00 0.00 0.00 41 1007.4
20260505015304 59 238 8.7 11.3 0.00 0.00 0.00 41 1007.4
20260505015203 59 239 9.6 12.2 0.00 0.00 0.00 41 1007.4
20260505015104 59 239 9.6 12.2 0.00 0.00 0.00 41 1007.4
20260505015003 60 239 9.6 12.2 0.00 0.00 0.00 41 1007.5
20260505014903 60 239 9.6 12.2 0.00 0.00 0.00 40 1007.4
20260505014804 60 239 9.6 12.2 0.00 0.00 0.00 40 1007.4
20260505014703 60 240 9.6 12.2 0.00 0.00 0.00 40 1007.4
20260505014603 60 239 9.6 12.2 0.00 0.00 0.00 40 1007.4
20260505014504 60 239 9.6 12.2 0.00 0.00 0.00 40 1007.5
20260505014404 60 241 10.4 12.2 0.00 0.00 0.00 39 1007.4
20260505014203 60 243 10.4 13.0 0.00 0.00 0.00 39 1007.4
20260505014104 60 243 10.4 13.0 0.00 0.00 0.00 39 1007.4
20260505014003 60 243 10.4 13.0 0.00 0.00 0.00 39 1007.4
20260505013903 60 243 11.3 13.0 0.00 0.00 0.00 39 1007.3
20260505013804 60 244 11.3 15.6 0.00 0.00 0.00 39 1007.3
20260505013703 60 243 11.3 16.5 0.00 0.00 0.00 39 1007.3
20260505013603 60 242 11.3 16.5 0.00 0.00 0.00 38 1007.3
20260505013504 60 242 11.3 16.5 0.00 0.00 0.00 38 1007.3
20260505013403 60 241 11.3 16.5 0.00 0.00 0.00 38 1007.3
20260505013203 60 240 11.3 16.5 0.00 0.00 0.00 38 1007.3
20260505013104 60 239 11.3 16.5 0.00 0.00 0.00 38 1007.3
20260505013003 60 240 11.3 16.5 0.00 0.00 0.00 38 1007.3
20260505012903 60 240 11.3 16.5 0.00 0.00 0.00 38 1007.3
20260505012804 60 240 11.3 16.5 0.00 0.00 0.00 37 1007.3
20260505012704 60 241 11.3 16.5 0.00 0.00 0.00 37 1007.3
20260505012603 60 244 11.3 16.5 0.00 0.00 0.00 38 1007.3
20260505012503 60 245 11.3 13.9 0.00 0.00 0.00 37 1007.3
20260505012404 60 247 12.2 13.9 0.00 0.00 0.00 38 1007.3
20260505012304 60 249 12.2 16.5 0.00 0.00 0.00 37 1007.3
20260505012203 60 251 12.2 16.5 0.00 0.00 0.00 37 1007.3
20260505012105 60 254 12.2 16.5 0.00 0.00 0.00 37 1007.3
20260505012003 61 255 12.2 16.5 0.00 0.00 0.00 37 1007.3
20260505011904 61 256 13.0 16.5 0.00 0.00 0.00 37 1007.3
20260505011804 61 257 13.0 16.5 0.00 0.00 0.00 36 1007.3
20260505011704 61 257 13.0 19.1 0.00 0.00 0.00 36 1007.3
20260505011404 61 259 13.0 19.1 0.00 0.00 0.00 36 1007.3
20260505011304 61 259 12.2 19.1 0.00 0.00 0.00 36 1007.3
20260505011203 61 259 12.2 19.1 0.00 0.00 0.00 36 1007.3
20260505011103 61 258 12.2 19.1 0.00 0.00 0.00 37 1007.3
20260505011004 61 258 12.2 19.1 0.00 0.00 0.00 37 1007.3
20260505010903 61 258 12.2 19.1 0.00 0.00 0.00 37 1007.3
20260505010803 61 259 12.2 19.1 0.00 0.00 0.00 36 1007.3
20260505010704 61 258 11.3 18.2 0.00 0.00 0.00 36 1007.4
20260505010604 61 257 11.3 18.2 0.00 0.00 0.00 37 1007.4
20260505010503 61 258 11.3 18.2 0.00 0.00 0.00 37 1007.5
20260505010403 61 260 11.3 18.2 0.00 0.00 0.00 37 1007.5
20260505010304 61 260 11.3 18.2 0.00 0.00 0.00 37 1007.5
20260505010203 61 261 11.3 18.2 0.00 0.00 0.00 37 1007.5
20260505010103 61 263 11.3 17.4 0.00 0.00 0.00 37 1007.5
20260505010004 61 264 11.3 17.4 0.00 0.00 0.00 36 1007.5
20260505005904 61 264 10.4 17.4 0.00 0.00 0.00 38 1007.5
20260505005803 61 263 10.4 17.4 0.00 0.00 0.00 38 1007.5
20260505005704 61 265 10.4 17.4 0.00 0.00 0.00 38 1007.5
20260505005604 61 266 10.4 17.4 0.00 0.00 0.00 38 1007.5
20260505005503 61 265 10.4 17.4 0.00 0.00 0.00 38 1007.5
20260505005404 61 265 10.4 17.4 0.00 0.00 0.00 38 1007.6
20260505005304 61 264 10.4 15.6 0.00 0.00 0.00 39 1007.6
20260505005203 61 265 10.4 15.6 0.00 0.00 0.00 39 1007.6
20260505005104 61 265 10.4 15.6 0.00 0.00 0.00 39 1007.7
20260505005004 61 264 10.4 15.6 0.00 0.00 0.00 39 1007.6
20260505004903 61 264 10.4 15.6 0.00 0.00 0.00 39 1007.6
20260505004803 61 265 10.4 15.6 0.00 0.00 0.00 39 1007.6
20260505004704 61 266 10.4 16.5 0.00 0.00 0.00 38 1007.6
20260505004603 61 266 11.3 16.5 0.00 0.00 0.00 38 1007.6
20260505004504 61 266 11.3 16.5 0.00 0.00 0.00 38 1007.5
20260505004404 61 265 11.3 16.5 0.00 0.00 0.00 38 1007.6
20260505004303 61 264 10.4 16.5 0.00 0.00 0.00 38 1007.6
20260505004203 61 263 11.3 16.5 0.00 0.00 0.00 38 1007.6
20260505004104 61 264 11.3 16.5 0.00 0.00 0.00 38 1007.6
20260505004004 61 266 11.3 18.2 0.00 0.00 0.00 40 1007.7
20260505003903 61 266 11.3 18.2 0.00 0.00 0.00 40 1007.8
20260505003804 61 266 11.3 18.2 0.00 0.00 0.00 39 1007.7
20260505003704 61 266 11.3 18.2 0.00 0.00 0.00 39 1007.7
20260505003603 61 267 11.3 18.2 0.00 0.00 0.00 39 1007.7
20260505003503 61 267 11.3 18.2 0.00 0.00 0.00 40 1007.8
20260505003404 61 267 11.3 18.2 0.00 0.00 0.00 40 1007.8
20260505003303 61 268 12.2 18.2 0.00 0.00 0.00 40 1007.8
20260505003203 61 268 12.2 18.2 0.00 0.00 0.00 40 1007.8
20260505003104 61 268 12.2 18.2 0.00 0.00 0.00 39 1007.8
20260505003003 61 268 12.2 17.4 0.00 0.00 0.00 39 1007.9
20260505002903 61 268 12.2 17.4 0.00 0.00 0.00 40 1007.9
20260505002804 61 266 12.2 17.4 0.00 0.00 0.00 40 1007.9
20260505002704 61 266 11.3 17.4 0.00 0.00 0.00 40 1008.0
20260505002603 61 265 11.3 17.4 0.00 0.00 0.00 40 1007.9
20260505002503 61 266 11.3 17.4 0.00 0.00 0.00 40 1007.9
20260505002304 61 268 11.3 17.4 0.00 0.00 0.00 39 1008.0
20260505002203 61 268 12.2 17.4 0.00 0.00 0.00 40 1008.0
20260505002104 61 268 12.2 17.4 0.00 0.00 0.00 40 1008.0
20260505002004 61 268 12.2 17.4 0.00 0.00 0.00 39 1008.0
20260505001903 61 268 12.2 19.1 0.00 0.00 0.00 39 1008.0
20260505001803 61 270 12.2 20.9 0.00 0.00 0.00 39 1008.1
20260505001704 61 270 12.2 20.9 0.00 0.00 0.00 40 1008.0
20260505001603 61 270 12.2 20.9 0.00 0.00 0.00 40 1008.0
20260505001503 61 270 12.2 20.9 0.00 0.00 0.00 39 1008.0
20260505001403 61 269 12.2 20.9 0.00 0.00 0.00 40 1008.1
20260505001304 61 267 13.0 20.9 0.00 0.00 0.00 39 1008.1
20260505001203 61 266 13.0 20.9 0.00 0.00 0.00 39 1008.1
20260505001103 61 264 13.0 20.9 0.00 0.00 0.00 39 1008.1
20260505001004 61 263 13.0 20.9 0.00 0.00 0.00 39 1008.2
20260505000904 61 261 13.0 20.9 0.00 0.00 0.00 39 1008.2
20260505000803 61 259 13.9 20.0 0.00 0.00 0.00 39 1008.2
20260505000704 61 257 13.9 20.0 0.00 0.00 0.00 38 1008.2
20260505000603 61 257 14.8 20.0 0.00 0.00 0.00 38 1008.2
20260505000503 61 257 14.8 20.0 0.00 0.00 0.00 39 1008.3
20260505000405 61 258 15.6 23.5 0.00 0.00 0.00 39 1008.3
20260505000319 61 257 15.6 23.5 0.00 0.00 0.00 38 1008.3
20260505000204 61 256 16.5 23.5 0.00 0.00 0.00 38 1008.4
20260505000103 61 256 17.4 23.5 0.00 0.00 0.00 38 1008.4
20260505000004 61 255 17.4 23.5 0.00 0.00 0.00 38 1008.4
20260504235903 61 256 17.4 23.5 0.00 0.00 0.00 39 1008.4
20260504235803 61 256 18.2 26.9 0.00 0.00 0.00 39 1008.5
20260504235704 61 256 18.2 26.9 0.00 0.00 0.00 39 1008.5
20260504235603 60 256 18.2 26.9 0.00 0.00 0.00 39 1008.6
20260504235503 60 256 18.2 26.9 0.00 0.00 0.00 38 1008.6
20260504235403 60 254 17.4 26.9 0.00 0.00 0.00 39 1008.6
20260504235304 60 255 17.4 26.9 0.00 0.00 0.00 39 1008.5
20260504235203 60 256 17.4 26.9 0.00 0.00 0.00 39 1008.6
20260504235104 60 256 16.5 26.9 0.00 0.00 0.00 39 1008.5
20260504235004 60 256 16.5 26.9 0.00 0.00 0.00 39 1008.6
20260504234903 60 257 15.6 26.9 0.00 0.00 0.00 39 1008.6
20260504234802 60 258 15.6 26.1 0.00 0.00 0.00 39 1008.6
20260504234702 60 258 14.8 26.1 0.00 0.00 0.00 39 1008.5
20260504234602 60 257 14.8 25.2 0.00 0.00 0.00 39 1008.6
20260504234502 60 257 14.8 25.2 0.00 0.00 0.00 39 1008.5
20260504234403 60 259 14.8 24.3 0.00 0.00 0.00 39 1008.5
20260504234302 60 260 14.8 24.3 0.00 0.00 0.00 39 1008.6
20260504234202 60 260 14.8 24.3 0.00 0.00 0.00 39 1008.6
20260504234102 60 260 14.8 24.3 0.00 0.00 0.00 39 1008.6
20260504233902 60 263 14.8 21.7 0.00 0.00 0.00 38 1008.7
20260504233802 61 264 14.8 21.7 0.00 0.00 0.00 38 1008.7
20260504233702 60 265 14.8 21.7 0.00 0.00 0.00 39 1008.5
20260504233502 61 269 14.8 21.7 0.00 0.00 0.00 38 1008.5
20260504233402 60 270 13.9 21.7 0.00 0.00 0.00 38 1008.5
20260504233303 61 270 13.9 22.6 0.00 0.00 0.00 38 1008.5
20260504233202 60 270 13.9 22.6 0.00 0.00 0.00 38 1008.5
20260504233102 61 272 13.9 22.6 0.00 0.00 0.00 38 1008.5
20260504232903 61 272 13.0 22.6 0.00 0.00 0.00 38 1008.5
20260504232702 61 274 13.0 22.6 0.00 0.00 0.00 37 1008.4
20260504232602 61 274 12.2 22.6 0.00 0.00 0.00 37 1008.3
20260504232502 61 274 12.2 22.6 0.00 0.00 0.00 37 1008.3
20260504232402 61 274 12.2 22.6 0.00 0.00 0.00 38 1008.2
20260504232303 61 275 11.3 20.0 0.00 0.00 0.00 38 1008.2
20260504232202 61 275 11.3 20.0 0.00 0.00 0.00 38 1008.2
20260504232002 60 275 11.3 20.9 0.00 0.00 0.00 38 1008.1
20260504231902 60 276 11.3 20.9 0.00 0.00 0.00 38 1008.1
20260504231802 60 275 10.4 20.9 0.00 0.00 0.00 39 1008.1
20260504231702 60 275 10.4 20.9 0.00 0.00 0.00 38 1008.1
20260504231603 60 274 10.4 20.9 0.00 0.00 0.00 38 1008.2
20260504231502 60 276 10.4 20.9 0.00 0.00 0.00 38 1008.0
20260504231402 60 276 10.4 20.9 0.00 0.00 0.00 39 1008.1
20260504231302 60 275 10.4 20.9 0.00 0.00 0.00 39 1008.1
20260504231202 60 275 10.4 20.9 0.00 0.00 0.00 39 1008.1
20260504231102 60 274 10.4 20.9 0.00 0.00 0.00 39 1008.1
20260504231002 60 274 10.4 19.1 0.00 0.00 0.00 39 1008.1
20260504230902 60 274 10.4 19.1 0.00 0.00 0.00 39 1008.2
20260504230802 60 274 11.3 19.1 0.00 0.00 0.00 39 1008.2
20260504230702 60 273 11.3 19.1 0.00 0.00 0.00 39 1008.2
20260504230603 60 273 11.3 19.1 0.00 0.00 0.00 39 1008.1
20260504230502 60 272 11.3 19.1 0.00 0.00 0.00 39 1008.1
20260504230402 60 272 12.2 19.1 0.00 0.00 0.00 39 1008.2
20260504230302 60 271 12.2 19.1 0.00 0.00 0.00 38 1008.1
20260504230203 60 270 13.0 19.1 0.00 0.00 0.00 39 1008.0
20260504230002 60 270 13.9 20.0 0.00 0.00 0.00 39 1008.5
20260504225902 60 270 13.9 20.0 0.00 0.00 0.00 40 1008.4
20260504225802 60 270 13.9 22.6 0.00 0.00 0.00 39 1008.4
20260504225702 60 270 14.8 22.6 0.00 0.00 0.00 40 1008.4
20260504225503 60 269 14.8 22.6 0.00 0.00 0.00 40 1008.5
20260504225402 60 268 14.8 22.6 0.00 0.00 0.00 40 1008.5
20260504225304 60 267 14.8 22.6 0.00 0.00 0.00 40 1008.5
20260504225202 60 266 14.8 22.6 0.00 0.00 0.00 41 1008.6
20260504225102 60 265 14.8 23.5 0.00 0.00 0.00 40 1008.6
20260504225002 60 265 14.8 23.5 0.00 0.00 0.00 39 1008.5
20260504224902 60 265 13.9 23.5 0.00 0.00 0.00 39 1008.5
20260504224602 60 267 13.9 23.5 0.00 0.00 0.00 39 1008.4
20260504224502 60 266 13.9 23.5 0.00 0.00 0.00 38 1008.5
20260504224402 60 266 13.0 23.5 0.00 0.00 0.00 38 1008.5
20260504224302 60 267 13.0 23.5 0.00 0.00 0.00 37 1008.5
20260504224202 60 269 13.0 23.5 0.00 0.00 0.00 37 1008.5
20260504224102 60 269 13.0 20.0 0.00 0.00 0.00 36 1008.5
20260504224002 61 268 13.0 20.0 0.00 0.00 0.00 36 1008.4
20260504223902 61 268 13.0 20.0 0.00 0.00 0.00 36 1008.5
20260504223802 61 267 13.0 19.1 0.00 0.00 0.00 35 1008.4
20260504223703 61 265 13.9 19.1 0.00 0.00 0.00 35 1008.4
20260504223602 61 263 13.9 19.1 0.00 0.00 0.00 35 1008.4
20260504223502 61 266 13.9 20.9 0.00 0.00 0.00 34 1008.2
20260504223403 61 267 13.9 20.9 0.00 0.00 0.00 34 1008.3
20260504223302 61 267 13.9 20.9 0.00 0.00 0.00 35 1008.4
20260504223202 61 268 14.8 20.9 0.00 0.00 0.00 34 1008.4
20260504223102 61 268 14.8 20.9 0.00 0.00 0.00 35 1008.4
20260504223002 61 267 14.8 20.9 0.00 0.00 0.00 35 1008.4
20260504222803 61 267 14.8 20.9 0.00 0.00 0.00 35 1008.5
20260504222702 61 268 15.6 20.9 0.00 0.00 0.00 34 1008.3
20260504222602 61 269 15.6 20.9 0.00 0.00 0.00 34 1008.2
20260504222502 61 267 15.6 22.6 0.00 0.00 0.00 34 1008.2
20260504222304 61 265 14.8 22.6 0.00 0.00 0.00 34 1008.1
20260504222202 61 264 14.8 22.6 0.00 0.00 0.00 35 1008.2
20260504222102 61 264 13.9 24.3 0.00 0.00 0.00 35 1008.2
20260504222002 61 264 13.0 24.3 0.00 0.00 0.00 35 1008.2
20260504221902 61 263 13.0 24.3 0.00 0.00 0.00 35 1008.2
20260504221802 61 261 12.2 24.3 0.00 0.00 0.00 35 1008.2
20260504221702 61 260 11.3 24.3 0.00 0.00 0.00 35 1008.1
20260504221602 61 258 10.4 24.3 0.00 0.00 0.00 34 1008.1
20260504221502 62 256 10.4 24.3 0.00 0.00 0.00 34 1008.2
20260504221402 62 253 9.6 24.3 0.00 0.00 0.00 33 1008.1
20260504221302 62 251 9.6 24.3 0.00 0.00 0.00 33 1008.1
20260504221202 62 250 9.6 24.3 0.00 0.00 0.00 32 1008.1
20260504221102 63 248 9.6 20.0 0.00 0.00 0.00 32 1008.1
20260504221003 63 245 9.6 20.0 0.00 0.00 0.00 32 1008.3
20260504220902 63 244 10.4 20.0 0.00 0.00 0.00 31 1008.2
20260504220802 63 245 10.4 20.0 0.00 0.00 0.00 29 1008.0
20260504220702 63 244 11.3 18.2 0.00 0.00 0.00 28 1008.0
20260504220602 63 241 12.2 18.2 0.00 0.00 0.00 27 1008.0
20260504220502 63 241 12.2 18.2 0.00 0.00 0.00 28 1008.1
20260504220402 63 243 13.0 20.9 0.00 0.00 0.00 27 1008.0
20260504220303 63 242 13.9 20.9 0.00 0.00 0.00 28 1008.1
20260504220202 63 242 13.9 20.9 0.00 0.00 0.00 27 1008.1
20260504220002 63 244 14.8 20.9 0.00 0.00 0.00 28 1008.2
20260504215903 62 246 14.8 23.5 0.00 0.00 0.00 28 1008.2
20260504215802 62 246 14.8 23.5 0.00 0.00 0.00 29 1008.3
20260504215702 62 247 14.8 23.5 0.00 0.00 0.00 30 1008.3
20260504215602 62 249 14.8 27.8 0.00 0.00 0.00 31 1008.2
20260504215502 61 252 14.8 27.8 0.00 0.00 0.00 36 1008.5
20260504215402 61 254 15.6 27.8 0.00 0.00 0.00 36 1008.5
20260504215304 61 256 15.6 27.8 0.00 0.00 0.00 36 1008.5
20260504215202 61 257 15.6 27.8 0.00 0.00 0.00 35 1008.7
20260504215002 61 257 15.6 27.8 0.00 0.00 0.00 36 1008.7
20260504214903 61 259 15.6 27.8 0.00 0.00 0.00 36 1008.8
20260504214802 61 258 15.6 27.8 0.00 0.00 0.00 36 1008.8
20260504214702 61 257 14.8 27.8 0.00 0.00 0.00 36 1008.8
20260504214602 62 258 14.8 25.2 0.00 0.00 0.00 36 1008.9
20260504214503 61 258 13.9 25.2 0.00 0.00 0.00 36 1008.9
20260504214402 61 258 13.0 25.2 0.00 0.00 0.00 36 1008.9
20260504214302 61 259 12.2 25.2 0.00 0.00 0.00 36 1009.0
20260504214103 62 260 11.3 25.2 0.00 0.00 0.00 36 1009.0
20260504214002 62 260 10.4 25.2 0.00 0.00 0.00 36 1009.0
20260504213902 62 259 9.6 25.2 0.00 0.00 0.00 36 1009.1
20260504213802 62 259 9.6 25.2 0.00 0.00 0.00 36 1009.1
20260504213602 63 259 8.7 25.2 0.00 0.00 0.00 34 1009.1
20260504213502 63 256 8.7 25.2 0.00 0.00 0.00 33 1009.1
20260504213402 64 252 7.8 16.5 0.00 0.00 0.00 31 1009.0
20260504213302 64 249 7.8 16.5 0.00 0.00 0.00 30 1008.9
20260504213202 64 250 7.8 15.6 0.00 0.00 0.00 30 1008.8
20260504213102 63 251 7.8 15.6 0.00 0.00 0.00 30 1008.8
20260504213003 63 251 7.8 15.6 0.00 0.00 0.00 30 1008.9
20260504212902 64 252 7.0 15.6 0.00 0.00 0.00 29 1008.9
20260504212802 63 253 7.0 15.6 0.00 0.00 0.00 29 1008.9
20260504212702 63 255 7.0 15.6 0.00 0.00 0.00 29 1008.8
20260504212602 63 258 7.0 15.6 0.00 0.00 0.00 28 1008.9
20260504212402 63 267 7.0 15.6 0.00 0.00 0.00 30 1008.9
20260504212303 64 269 7.0 15.6 0.00 0.00 0.00 29 1008.8
20260504212202 64 270 7.0 11.3 0.00 0.00 0.00 29 1008.8
20260504212102 64 270 7.0 11.3 0.00 0.00 0.00 29 1008.8
20260504211903 64 271 7.0 11.3 0.00 0.00 0.00 29 1008.8
20260504211802 63 271 7.0 11.3 0.00 0.00 0.00 29 1008.7
20260504211702 63 272 7.0 11.3 0.00 0.00 0.00 29 1008.8
20260504211602 63 273 6.1 13.9 0.00 0.00 0.00 29 1008.8
20260504211502 63 273 6.1 13.9 0.00 0.00 0.00 28 1008.7
20260504211402 63 274 6.1 13.9 0.00 0.00 0.00 29 1008.7
20260504211302 63 275 6.1 13.9 0.00 0.00 0.00 29 1008.7
20260504211203 63 275 6.1 13.9 0.00 0.00 0.00 30 1008.7
20260504211102 63 276 6.1 13.9 0.00 0.00 0.00 30 1008.7
20260504211002 62 278 6.1 13.9 0.00 0.00 0.00 30 1008.7
20260504210903 62 283 6.1 13.9 0.00 0.00 0.00 31 1008.8
20260504210802 62 283 6.1 13.9 0.00 0.00 0.00 31 1008.7
20260504210702 62 286 6.1 13.9 0.00 0.00 0.00 32 1008.8
20260504210602 62 288 6.1 12.2 0.00 0.00 0.00 33 1008.8
20260504210503 62 293 6.1 12.2 0.00 0.00 0.00 34 1008.8
20260504210402 61 294 6.1 12.2 0.00 0.00 0.00 34 1009.0
20260504210302 61 295 6.1 12.2 0.00 0.00 0.00 35 1009.0
20260504210203 61 297 6.1 12.2 0.00 0.00 0.00 34 1008.9
20260504210002 61 298 7.0 12.2 0.00 0.00 0.00 35 1009.4
20260504205902 61 300 7.0 12.2 0.00 0.00 0.00 36 1009.3
20260504205802 61 300 7.0 12.2 0.00 0.00 0.00 37 1009.4
20260504205702 61 299 7.0 12.2 0.00 0.00 0.00 37 1009.4
20260504205602 61 301 7.8 13.0 0.00 0.00 0.00 37 1009.5
20260504205503 61 300 7.8 13.0 0.00 0.00 0.00 37 1009.5
20260504205402 61 303 7.8 13.0 0.00 0.00 0.00 37 1009.5
20260504205303 61 303 7.8 13.0 0.00 0.00 0.00 38 1009.5
20260504205202 61 303 7.8 13.9 0.00 0.00 0.00 41 1009.5
20260504205102 61 304 8.7 13.9 0.00 0.00 0.00 39 1009.5
20260504205002 61 305 8.7 13.9 0.00 0.00 0.00 39 1009.5
20260504204902 61 307 8.7 18.2 0.00 0.00 0.00 40 1009.5
20260504204803 61 308 8.7 18.2 0.00 0.00 0.00 39 1009.4
20260504204702 61 309 8.7 18.2 0.00 0.00 0.00 38 1009.4
20260504204602 61 309 8.7 18.2 0.00 0.00 0.00 39 1009.4
20260504204503 61 309 8.7 18.2 0.00 0.00 0.00 40 1009.5
20260504204402 61 309 9.6 18.2 0.00 0.00 0.00 41 1009.5
20260504204302 61 310 9.6 18.2 0.00 0.00 0.00 41 1009.5
20260504204202 61 310 9.6 18.2 0.00 0.00 0.00 41 1009.5
20260504204103 61 309 10.4 18.2 0.00 0.00 0.00 40 1009.4
20260504204002 61 310 10.4 18.2 0.00 0.00 0.00 39 1009.3
20260504203902 61 310 10.4 19.1 0.00 0.00 0.00 42 1009.5
20260504203803 61 310 11.3 20.0 0.00 0.00 0.00 40 1009.4
20260504203702 61 311 11.3 20.9 0.00 0.00 0.00 40 1009.4
20260504203602 61 310 12.2 20.9 0.00 0.00 0.00 41 1009.4
20260504203503 61 309 12.2 20.9 0.00 0.00 0.00 42 1009.2
20260504203402 61 310 13.0 20.9 0.00 0.00 0.00 39 1009.2
20260504203302 61 310 13.0 20.9 0.00 0.00 0.00 40 1009.4
20260504203202 61 311 13.9 20.9 0.00 0.00 0.00 40 1009.3
20260504203102 61 312 13.9 20.9 0.00 0.00 0.00 38 1009.3
20260504203002 61 313 13.9 20.9 0.00 0.00 0.00 39 1009.3
20260504202902 61 313 13.9 20.9 0.00 0.00 0.00 37 1009.4
20260504202803 61 313 14.8 20.9 0.00 0.00 0.00 39 1009.5
20260504202702 61 313 14.8 20.9 0.00 0.00 0.00 40 1009.5
20260504202602 61 315 14.8 25.2 0.00 0.00 0.00 39 1009.5
20260504202502 60 316 14.8 26.1 0.00 0.00 0.00 38 1009.5
20260504202402 60 316 14.8 26.1 0.00 0.00 0.00 39 1009.4
20260504202304 60 316 14.8 26.1 0.00 0.00 0.00 39 1009.4
20260504202202 60 315 14.8 26.1 0.00 0.00 0.00 41 1009.5
20260504202103 60 314 14.8 26.1 0.00 0.00 0.00 39 1009.4
20260504201902 60 313 13.9 26.1 0.00 0.00 0.00 39 1009.5
20260504201802 60 312 13.9 26.1 0.00 0.00 0.00 41 1009.5
20260504201703 60 312 13.9 26.1 0.00 0.00 0.00 40 1009.4
20260504201502 60 310 13.0 26.1 0.00 0.00 0.00 44 1009.6
20260504201402 60 310 13.0 26.1 0.00 0.00 0.00 42 1009.6
20260504201302 59 309 13.0 27.8 0.00 0.00 0.00 43 1009.3
20260504201202 59 310 13.0 27.8 0.00 0.00 0.00 43 1009.2
20260504201102 59 310 13.0 27.8 0.00 0.00 0.00 41 1009.1
20260504201003 59 311 13.0 27.8 0.00 0.00 0.00 41 1009.1
20260504200902 59 310 13.0 27.8 0.00 0.00 0.00 42 1009.2
20260504200802 59 310 13.0 27.8 0.00 0.00 0.00 43 1009.2
20260504200702 59 311 13.0 27.8 0.00 0.00 0.00 41 1009.1
20260504200602 60 312 13.9 27.8 0.00 0.00 0.00 40 1009.5
20260504200502 60 313 13.9 27.8 0.00 0.00 0.00 40 1009.6
20260504200402 60 312 13.9 27.8 0.00 0.00 0.00 39 1009.7
20260504200303 60 315 13.9 25.2 0.00 0.00 0.00 41 1009.6
20260504200202 60 314 13.9 25.2 0.00 0.00 0.00 40 1009.6
20260504200002 60 316 13.9 26.1 0.00 0.00 0.00 39 1009.7
20260504195902 61 316 13.0 26.1 0.00 0.00 0.00 39 1009.7
20260504195802 61 316 12.2 26.1 0.00 0.00 0.00 39 1009.7
20260504195703 61 315 12.2 26.1 0.00 0.00 0.00 37 1009.7
20260504195602 61 315 11.3 26.1 0.00 0.00 0.00 37 1009.8
20260504195502 61 318 10.4 26.1 0.00 0.00 0.00 36 1009.8
20260504195403 62 321 9.6 26.1 0.00 0.00 0.00 35 1009.9
20260504195304 62 322 8.7 26.1 0.00 0.00 0.00 34 1009.8
20260504194803 66 337 5.2 18.2 0.00 0.00 0.00 30 1009.9
20260504194202 69 11 3.5 8.7 0.00 0.00 0.00 29 1009.6
20260504193902 68 84 4.3 7.8 0.00 0.00 0.00 31 1009.7
20260504193702 68 85 5.2 7.8 0.00 0.00 0.00 33 1009.7
20260504193102 67 58 6.1 10.4 0.00 0.00 0.00 30 1009.6
20260504193002 66 55 7.0 10.4 0.00 0.00 0.00 31 1009.5
20260504192902 66 54 7.0 10.4 0.00 0.00 0.00 30 1009.6
20260504192702 66 63 7.0 12.2 0.00 0.00 0.00 32 1009.6
20260504192502 66 70 7.8 15.6 0.00 0.00 0.00 31 1009.6
20260504191802 66 88 6.1 15.6 0.00 0.00 0.00 31 1009.6
20260504191702 66 89 6.1 15.6 0.00 0.00 0.00 31 1009.6
20260504191602 66 90 6.1 15.6 0.00 0.00 0.00 31 1009.7
20260504191502 67 94 6.1 12.2 0.00 0.00 0.00 31 1009.8
20260504191202 66 106 6.1 11.3 0.00 0.00 0.00 31 1009.7
20260504191103 66 110 6.1 11.3 0.00 0.00 0.00 31 1009.7
20260504191002 66 110 6.1 11.3 0.00 0.00 0.00 30 1009.8
20260504190703 66 109 6.1 11.3 0.00 0.00 0.00 31 1009.8
20260504190602 66 109 6.1 11.3 0.00 0.00 0.00 31 1009.9
20260504190303 67 98 7.0 11.3 0.00 0.00 0.00 30 1009.9
20260504190003 66 88 7.0 10.4 0.00 0.00 0.00 30 1010.0
20260504185502 66 79 6.1 12.2 0.00 0.00 0.00 30 1010.1
20260504185103 66 78 3.5 15.6 0.00 0.00 0.00 31 1010.0
20260504184202 66 47 1.7 11.3 0.00 0.00 0.00 30 1010.1
20260504184002 66 302 2.6 4.3 0.00 0.00 0.00 32 1010.0
20260504183802 65 297 2.6 4.3 0.00 0.00 0.00 31 1010.1
20260504183703 65 292 3.5 7.0 0.00 0.00 0.00 31 1010.2
20260504183602 65 292 3.5 7.0 0.00 0.00 0.00 31 1010.1
20260504183402 65 278 4.3 8.7 0.00 0.00 0.00 31 1010.1
20260504183203 65 274 5.2 8.7 0.00 0.00 0.00 32 1010.2
20260504182602 64 255 7.0 12.2 0.00 0.00 0.00 33 1010.3
20260504182402 64 253 7.8 12.2 0.00 0.00 0.00 32 1010.4
20260504182103 64 243 7.0 12.2 0.00 0.00 0.00 31 1010.4
20260504181202 65 170 7.8 12.2 0.00 0.00 0.00 33 1010.6
20260504181102 64 159 7.8 12.2 0.00 0.00 0.00 33 1010.6
20260504181002 64 150 7.8 12.2 0.00 0.00 0.00 33 1010.6
20260504180802 64 141 7.0 12.2 0.00 0.00 0.00 33 1010.7
20260504180702 64 134 7.0 12.2 0.00 0.00 0.00 33 1010.7
20260504180503 64 125 6.1 16.5 0.00 0.00 0.00 34 1010.7
20260504175803 64 121 4.3 16.5 0.00 0.00 0.00 34 1010.8
20260504174702 62 269 6.1 12.2 0.00 0.00 0.00 37 1011.0
20260504174603 62 268 6.1 12.2 0.00 0.00 0.00 37 1011.0
20260504174002 62 260 5.2 13.0 0.00 0.00 0.00 37 1011.0
20260504173702 63 248 5.2 13.0 0.00 0.00 0.00 35 1011.1
20260504173602 63 243 5.2 13.0 0.00 0.00 0.00 35 1011.1
20260504172602 63 257 2.6 12.2 0.00 0.00 0.00 35 1011.3
20260504172002 64 150 3.5 7.8 0.00 0.00 0.00 36 1011.4
20260504171003 62 149 5.2 10.4 0.00 0.00 0.00 38 1011.4
20260504170603 62 155 5.2 9.6 0.00 0.00 0.00 37 1011.3
20260504170303 62 172 5.2 9.6 0.00 0.00 0.00 38 1011.3
20260504160402 60 135 1.7 5.2 0.00 0.00 0.00 33 1012.0